2021-088B (49261 NORAD) Tracking and Keplerian Element Data

This shows tracking and keplerian element data for the satellite.

Feedback or suggestion? Click here.




ElementValue
Catalog49261
Name2021-088B
Epoch Orbit259
Epoch Day288.14507715
Epoch Year2021
RAAN355.8404
Inclination97.6269
Eccentricity0.0022912
Argument of Perigee191.098
Mean Anonmoly168.9742
Mean Motion15.00365126
Decay Rate1.468E-05
L11 49261U 21088B 21288.14507715 .00001468 00000-0 12110-3 0 9999
L22 49261 97.6269 355.8404 0022912 191.0980 168.9742 15.00365126 2598

Live tracking and technical data element details for 2021-088B (NORAD 49261). 2021-088B can be tracked NOW for your location showing map with azimuth and elevation plus other details from your city location.

Track the satellite on the map from your city or location and see movement details for azimuth, elevation, latitude, longitude, range, height, and movement on the map or in text.







IsCatalogInMostPopularTable: catalog: 49261, numindb: 9
Update: records affected: 1



GetName: 49261 2021-088B

Hit Count: updated at: Tue, 19 Oct 2021 09:09:57 GMT